Overview Statistics Trail Chart Weather Telemetry Raw packets
 

This is the latest recevied weather packets stored in our database for station/object W7TRD. If no packets are shown the sender has not sent any weather packets the latest 10 day(s).

<< 50 51 52 53 54 55 56 >>
Time Temp. Humidity Pressure Rain* Wind** Luminosity Snow
1788278644 15° C 90% 1012.9 hPa 0 mm - 92 W/m² -
1788278344 15° C 91% 1013 hPa 0 mm - 68 W/m² -
1788278044 15° C 92% 1013 hPa 0 mm - 45 W/m² -
1788277741 15° C 91% 1013.1 hPa 0 mm - 57 W/m² -
1788277440 15° C 92% 1013 hPa 0 mm - 51 W/m² -
1788277134 15° C 90% 1013.2 hPa 0 mm - 45 W/m² -
1788276829 15° C 89% 1013 hPa 0 mm - 41 W/m² -
1788276528 15.56° C 86% 1012.9 hPa 0 mm - 30 W/m² -
1788276223 15.56° C 85% 1012.7 hPa 0 mm - 28 W/m² -
1788275918 15.56° C 85% 1012.9 hPa 0 mm - 23 W/m² -
1788275618 15.56° C 83% 1013.1 hPa 0 mm - 20 W/m² -
1788275317 15.56° C 83% 1012.8 hPa 0 mm - 21 W/m² -
1788275015 15.56° C 83% 1012.7 hPa 0 mm - 22 W/m² -
1788274713 15.56° C 83% 1012.6 hPa 0 mm - 24 W/m² -
1788274413 15.56° C 83% 1012.7 hPa 0 mm - 26 W/m² -
1788274108 15.56° C 83% 1012.5 hPa 0 mm - 26 W/m² -
1788273803 15.56° C 83% 1012.7 hPa 0 mm - 16 W/m² -
1788273499 15.56° C 83% 1012.6 hPa 0 mm - 14 W/m² -
1788273195 15.56° C 83% 1012.8 hPa 0 mm - 14 W/m² -
1788272892 15.56° C 83% 1012.6 hPa 0 mm - 9 W/m² -
1788272590 15.56° C 83% 1012.8 hPa 0 mm - 8 W/m² -
1788272286 15.56° C 83% 1012.7 hPa 0 mm - 6 W/m² -
1788271981 15.56° C 83% 1012.7 hPa 0 mm - 7 W/m² -
1788271679 15.56° C 84% 1012.6 hPa 0 mm - 6 W/m² -
1788271378 15° C 84% 1012.5 hPa 0 mm - 5 W/m² -

* Rain latest hour (hover to see other rain measurements)
** Current wind speed in m/s (hover to see current wind gust speed)